User: anonymous   Login
Location: Pine Mountain Observatory
(43.7910°N, 120.9377°W)
Time: 19:10:46
(UTC-08:00)
Language:

Cosmos 1076 Rocket - Orbit

View from above orbital plane
View from above orbital plane
View from above satellite
View from above satellite

Ground track
Ground track

The orbit data is extracted from the following two-line orbital elements,

1 11267U 79011B   18051.90124586  .00000099  00000-0  78016-5 0  9990
2 11267  82.5276 354.6666 0018257 119.9306 240.3728 14.88881924112471
Epoch (UTC): 20 February 2018 21:37:47
Eccentricity: 0.0018257
inclination: 82.5276°
perigee height: 588 km
apogee height: 614 km
right ascension of ascending node: 354.6666°
argument of perigee: 119.9306°
revolutions per day: 14.88881924
mean anomaly at epoch: 240.3728°
orbit number at epoch: 11247

The dashed part of the orbit path shows where the satellite is in the earth's shadow,  

DLR